sat.trackr.live / text

‹ back to catalog

STARLINK-1365

NORAD 45590 · 2020-025BM

PAYLOAD ACTIVE UNKNOWN

§ Identity

Operator
Country
US
Launch date
2020-04-22
Launch site
AFETR
Launch vehicle
Mass (kg)
RCS (m²)

Purposes: comms

External: N2YO · Heavens-Above · Gunter

§ Orbital elements

Epoch: 2026-05-25T04:59:25.634976Z

Period
92.51 min
Inclination
53.0462°
Eccentricity
0.0004928
Mean motion
15.56569839 rev/d
Perigee alt
394.3 km
Apogee alt
400.9 km
Semi-major
6,775.7 km
B*
1.1067e-3
RAAN
85.6718°
Arg perigee
46.8127°
Mean anomaly
313.3295°
Rev number
33,716

§ Raw data

STARLINK-13651 45590U 20025BM  26145.20793559  .00080396  00000+0  11067-2 0  99922 45590  53.0462  85.6718 0004928  46.8127 313.3295 15.56569839337164

JSON: /api/v1/satellites/45590 · /tle

For live sub-satellite position, see the globe view (requires WebGL).

§ Visibility from observer

Set your observer location to see the next 7 days of passes ≥ 10°. The values pass through the URL so the page stays shareable.

No JS? Fill the form by hand. The geolocation button needs JavaScript.